Wind_Speed
16 15 14 13 13 13 14 14 16 16 17 19 23 27 27 27 26 26 28 28 26 26 23 25 27 26 30 28 27 25 25 21 11 28 24 21 27 29 29 32 36 33 28
18 18 19 18 19 19 19 20 21 19 18 17 18 20 22 22 23 26 28 26 20 16 21 22 26 26 28 28 24 24 27 27 26 17 25 27 26 30 32 33 32 28 24
17 17 17 17 18 18 18 19 20 20 20 20 19 20 23 23 23 21 23 22 19 18 18 23 29 30 29 30 27 29 29 28 30 28 24 26 33 28 32 31 29 24 22
17 18 18 18 17 18 17 18 20 20 21 21 20 19 20 20 23 27 28 25 25 23 25 27 30 32 33 30 30 31 29 28 29 29 27 23 24 27 31 24 23 23 16
16 17 17 17 18 18 19 19 19 19 20 20 21 21 15 18 28 27 26 26 23 24 23 21 22 26 31 32 27 27 28 29 29 27 24 17 13 14 25 25 18 20 17
16 15 17 17 15 16 17 18 20 20 20 21 21 22 22 24 25 27 22 17 17 20 22 22 23 25 24 24 23 29 27 20 25 22 19 12 18 28 26 28 21 11 3
14 16 15 14 15 16 17 17 18 18 19 21 23 21 23 28 28 28 23 23 20 20 20 20 20 20 21 20 18 17 12 15 13 14 16 12 17 28 31 26 24 23 12
16 15 15 16 16 17 18 19 19 19 21 19 18 18 20 25 28 24 21 22 23 22 23 22 22 23 24 21 15 13 13 16 20 21 17 11 7 5 7 7 7 7 4
15 15 16 16 16 17 18 18 18 18 16 14 12 12 12 16 25 25 18 17 16 16 17 18 19 19 21 20 18 17 14 14 11 10 11 12 12 7 5 3 6 9 2
14 15 14 16 17 17 18 17 14 13 12 11 11 12 13 16 19 25 23 16 18 16 17 17 17 17 17 17 15 16 15 15 15 12 9 7 7 6 7 3 13 11 5
14 14 15 15 14 13 12 13 13 13 14 14 15 15 15 17 18 20 21 21 20 16 16 16 15 16 16 16 13 10 9 10 10 8 9 6 5 1 5 4 6 9 8
14 14 13 12 11 12 12 13 12 14 13 14 16 16 15 19 18 21 20 19 18 18 19 18 15 14 15 15 12 10 9 8 8 7 5 6 5 5 4 4 5 6 8
14 13 11 12 13 13 13 14 14 14 14 15 15 16 17 19 19 21 23 22 22 21 19 18 15 13 14 15 15 11 9 10 10 8 8 6 5 5 6 5 6 8 7
13 12 12 11 13 13 13 13 13 14 15 15 16 17 18 20 22 25 24 24 24 25 22 19 14 14 12 12 14 12 10 8 9 9 9 7 6 6 7 10 11 9 7
12 12 14 14 15 15 14 15 16 15 16 17 17 19 19 17 22 23 23 25 24 22 19 16 15 15 14 15 14 13 12 10 9 8 8 7 7 7 9 12 12 11 5
13 12 12 12 13 14 15 17 16 17 21 20 17 17 18 17 22 24 22 21 21 18 18 15 14 14 14 15 14 14 11 9 8 8 8 8 10 10 11 13 13 11 8
10 11 14 15 16 17 18 18 19 21 18 19 22 21 21 12 23 25 23 22 19 19 15 15 14 14 14 14 13 12 12 10 8 7 7 8 9 10 13 15 12 10 9
15 18 19 17 16 17 18 19 19 19 19 21 21 22 19 20 21 23 25 23 18 19 17 16 15 15 14 13 12 11 10 8 7 7 7 7 8 10 13 14 13 11 10
15 17 16 16 18 21 21 21 21 21 21 21 22 22 24 30 24 22 23 20 19 19 21 20 17 14 13 11 10 9 9 8 7 6 7 7 7 11 13 15 13 11 11
15 19 19 19 21 22 22 22 22 22 22 22 23 24 29 29 24 23 22 20 20 24 23 24 19 15 11 9 9 8 6 7 7 6 6 6 6 10 13 15 14 11 10
18 18 20 20 20 20 20 20 21 22 22 22 23 27 32 26 25 25 25 24 25 26 25 26 20 13 9 8 7 7 6 7 6 6 5 3 4 9 12 13 12 12 10
19 19 20 21 20 20 21 21 21 22 23 23 24 26 29 27 27 27 27 26 30 34 23 18 13 6 6 7 8 6 8 7 8 7 6 3 3 7 11 11 12 12 13
19 19 18 18 19 19 20 21 21 22 23 23 24 25 25 26 27 27 28 29 30 32 25 19 17 13 12 11 10 9 9 9 9 7 5 3 2 6 10 11 13 12 16
18 18 18 19 20 20 21 21 21 23 23 23 24 25 25 27 28 29 30 30 30 28 26 23 21 19 17 13 13 12 12 10 9 9 6 3 2 4 10 11 12 14 16
19 18 19 18 19 19 20 21 21 22 23 24 25 25 26 27 28 30 31 32 31 27 27 25 24 21 18 16 14 12 11 10 9 8 7 3 3 4 7 11 12 14 15
18 18 17 18 19 19 20 20 21 23 24 24 25 26 26 28 29 29 32 33 33 28 28 28 27 23 22 18 18 13 11 10 10 7 6 3 3 3 7 9 12 14 15
Wind_Direction
75 69 61 50 42 34 25 10 356 349 341 330 321 317 302 292 280 265 254 253 248 249 248 254 255 247 238 237 240 244 238 232 248 270 251 258 235 233 221 221 217 208 205
76 68 60 52 47 38 25 13 7 3 356 352 354 1 353 332 320 295 273 264 257 262 268 264 266 257 246 247 238 234 238 245 240 250 249 240 236 225 217 206 196 203 208
73 62 51 43 41 36 27 19 15 12 10 10 16 15 4 1 7 356 340 309 281 270 264 275 273 263 244 243 235 243 243 238 233 238 249 236 235 227 200 197 198 205 210
60 53 44 35 35 30 24 19 17 13 10 7 11 18 18 4 2 356 349 344 345 313 283 279 261 251 247 241 237 238 239 237 233 233 238 233 220 201 197 193 185 190 190
56 48 37 29 29 25 23 18 15 15 13 12 13 15 29 16 4 350 343 339 337 332 321 328 311 285 265 255 246 250 243 235 231 232 231 217 185 178 186 193 187 183 192
57 50 37 27 29 24 20 15 12 10 14 20 22 28 12 12 12 2 358 6 354 349 347 338 332 316 316 312 306 289 269 268 248 241 232 212 216 203 184 178 167 164 183
61 50 41 29 27 21 19 19 14 8 24 22 20 19 28 25 21 25 16 24 20 16 13 7 0 358 352 347 340 339 332 330 328 286 270 241 208 196 187 176 178 178 173
57 47 37 26 23 20 21 22 17 27 27 22 26 30 35 30 19 15 15 24 29 30 32 30 28 28 27 21 22 35 41 39 38 47 59 51 66 126 108 72 136 180 169
52 46 37 25 27 23 27 24 27 32 30 30 28 29 21 8 11 15 19 12 16 16 14 11 16 14 9 9 11 10 12 19 18 31 47 55 76 81 87 202 217 208 110
50 45 38 31 36 29 31 26 23 31 31 23 13 14 8 7 11 11 21 17 12 11 12 11 10 10 7 9 14 9 10 5 0 356 343 318 278 268 227 246 216 189 127
52 49 42 33 31 28 21 20 14 8 6 3 3 3 9 6 360 2 6 7 0 351 349 351 351 355 358 358 3 6 2 348 357 7 0 0 1 325 279 244 258 215 194
58 51 41 31 27 23 20 10 7 6 1 359 355 353 353 352 350 353 355 351 347 347 343 337 330 337 348 344 346 342 336 336 334 340 346 328 314 287 271 253 202 226 221
51 45 36 29 20 20 15 9 7 3 2 354 352 349 344 345 348 350 350 350 348 342 333 328 324 319 331 336 337 330 320 314 316 316 313 302 275 279 262 226 186 191 206
49 39 35 29 17 17 12 8 3 1 0 353 349 346 343 345 349 348 346 343 344 342 336 329 322 322 330 341 337 335 320 319 308 301 300 294 286 267 229 214 198 197 180
48 44 26 25 12 13 4 358 354 355 3 350 338 337 337 339 339 341 344 343 340 340 333 337 337 341 342 337 336 335 330 324 312 303 285 279 278 255 233 219 211 184 168
42 27 33 11 1 356 349 345 352 348 344 343 330 321 323 329 348 343 338 338 340 340 346 340 335 338 337 332 330 332 333 328 320 310 293 272 262 246 223 209 201 190 173
23 16 20 7 354 347 342 335 328 334 336 340 340 347 330 334 349 351 348 338 343 345 328 326 322 324 326 325 324 325 325 327 321 322 303 288 276 247 206 188 188 184 180
29 25 18 2 351 348 346 348 346 340 346 345 343 338 334 337 339 347 347 344 342 346 337 315 315 324 325 323 323 324 328 329 326 311 307 298 270 229 195 178 179 178 177
39 32 11 0 10 13 7 2 356 349 346 343 344 347 358 358 346 343 347 343 342 335 335 322 320 323 320 319 321 317 318 320 321 308 308 304 273 221 195 185 186 187 180
31 27 20 29 21 16 9 2 358 357 358 360 0 0 1 353 349 348 347 346 344 329 326 324 318 318 313 315 322 324 328 336 344 338 313 307 272 225 194 184 184 177 169
33 27 27 30 23 13 6 1 2 5 3 360 1 359 359 357 350 346 342 337 334 321 312 316 312 317 318 321 328 333 343 344 351 343 335 306 276 211 201 191 183 183 172
35 30 30 28 20 13 8 6 7 6 0 359 358 356 358 359 352 348 346 346 341 334 319 325 317 332 352 7 5 3 9 9 6 354 343 335 281 215 195 187 181 178 166
35 32 29 26 19 13 12 10 9 7 0 0 360 358 358 358 354 352 350 348 345 346 3 13 24 31 30 27 25 26 22 7 360 356 343 323 245 212 200 188 182 166 156
38 35 31 27 20 17 15 10 10 9 3 4 3 1 2 1 357 355 353 352 352 357 8 11 15 17 22 15 14 17 14 11 3 357 351 317 268 212 200 192 186 181 165
39 37 32 28 22 18 16 13 14 10 7 7 6 4 6 3 0 358 356 357 357 5 9 8 11 12 9 2 2 5 4 5 356 342 341 319 262 223 207 196 188 180 167
42 39 35 33 26 25 22 18 17 15 12 10 9 6 6 5 2 1 359 1 2 6 12 12 13 8 3 6 6 3 4 358 353 337 331 333 250 222 197 199 188 183 181
Height
728 730 731 731 730 730 730 729 727 724 723 720 717 714 713 713 712 712 708 710 709 710 712 715 715 715 714 714 716 717 719 722 720 716 719 717 714 714 716 720 722 724 728
729 730 730 731 730 730 730 730 728 725 722 719 717 715 713 711 709 708 705 703 703 703 706 710 710 710 709 710 707 708 709 712 712 709 707 707 706 707 709 712 715 717 720
730 731 732 733 731 730 732 731 730 728 725 722 717 715 714 713 709 707 705 699 697 698 697 700 705 705 700 702 697 699 697 697 701 700 695 696 696 697 700 704 706 712 715
730 732 733 733 732 732 733 732 731 729 727 724 720 715 713 712 710 708 704 701 699 697 695 694 691 693 692 691 689 688 691 690 687 688 686 687 687 688 693 701 701 703 712
732 734 735 734 734 735 734 734 733 731 729 726 723 720 713 711 712 710 706 705 701 698 695 694 692 689 686 684 683 680 680 677 675 676 674 678 679 685 686 689 696 696 702
732 735 735 735 736 737 736 736 735 734 731 728 726 723 722 715 712 712 708 704 702 699 695 693 691 688 684 682 679 677 676 673 670 671 669 670 672 673 675 678 685 693 699
735 734 738 739 738 739 737 738 738 736 733 731 729 726 724 722 718 710 713 705 703 702 699 695 692 689 685 681 678 676 675 673 671 668 666 666 665 663 664 667 673 679 684
736 739 741 740 741 741 740 741 740 737 736 734 732 729 728 725 721 718 716 711 709 707 703 701 699 694 689 685 681 679 677 675 674 671 669 670 667 672 672 673 676 686 688
740 742 742 743 742 744 744 744 742 740 738 737 736 734 733 730 727 723 718 715 711 709 707 705 701 697 694 691 688 685 682 681 680 678 675 677 675 679 677 682 685 687 688
742 744 746 746 745 747 747 747 747 743 742 740 740 736 733 730 728 726 721 717 714 711 708 706 702 699 697 693 689 688 686 684 683 681 680 679 679 680 682 682 681 684 689
746 747 748 748 750 751 750 748 748 746 743 742 740 737 734 732 729 726 722 719 716 712 709 706 703 700 697 694 691 690 688 686 684 683 682 680 681 682 683 684 686 687 689
749 749 751 753 754 752 751 751 749 746 744 743 740 737 735 733 730 727 723 720 717 712 708 705 702 700 697 695 692 690 688 686 684 684 682 682 682 684 684 686 686 688 689
751 753 756 756 756 754 753 752 751 749 746 744 741 739 736 733 729 726 722 719 716 712 708 705 701 698 696 693 691 688 687 686 685 684 683 683 683 684 684 687 687 688 690
754 756 758 758 757 757 756 755 753 750 748 745 743 740 736 732 728 724 720 716 713 709 706 703 700 698 695 693 690 688 687 685 684 683 683 682 682 683 684 685 687 689 691
759 761 762 760 759 758 758 757 753 750 748 746 743 740 736 732 728 725 721 716 712 709 704 701 699 697 694 691 689 687 686 684 683 682 681 682 682 682 683 684 686 688 690
763 763 764 763 762 760 758 756 753 750 748 745 742 739 735 733 729 724 720 717 713 709 704 701 698 696 693 691 689 687 685 683 682 681 680 680 681 681 681 682 684 686 689
766 766 764 764 762 760 758 755 751 747 745 744 741 737 734 733 729 724 719 715 712 708 704 700 698 695 692 690 688 686 684 683 681 681 679 679 679 679 680 681 683 686 688
768 767 766 765 764 761 758 756 753 748 745 742 740 737 733 730 727 722 718 712 709 706 703 699 696 693 691 688 687 685 683 682 681 680 678 677 677 677 679 680 682 685 687
771 770 769 767 765 763 761 758 755 751 747 743 740 736 734 730 725 721 717 714 711 707 702 698 694 691 689 687 685 684 683 681 680 678 677 676 675 676 677 679 682 684 686
774 773 771 769 768 766 764 762 758 754 750 747 744 740 736 731 725 721 717 714 711 708 702 696 691 689 687 686 684 683 681 680 678 677 676 675 674 675 677 679 681 684 686
776 775 774 772 770 770 769 766 762 758 755 752 749 745 740 735 729 724 719 715 711 705 700 694 689 687 685 684 683 682 681 679 678 676 676 674 674 675 676 679 681 684 686
780 778 776 776 776 775 773 769 766 763 760 756 752 747 742 738 733 727 722 716 710 702 696 691 688 686 685 684 683 681 680 679 678 676 675 674 674 675 677 679 681 684 686
784 782 782 782 781 778 776 773 770 767 764 760 756 751 746 742 737 731 725 719 712 704 698 693 689 687 686 685 683 681 680 679 678 677 676 675 675 676 677 679 682 684 686
788 788 786 785 785 782 780 778 775 772 768 764 760 756 751 746 740 734 728 721 715 708 703 698 695 692 689 686 684 682 681 680 678 677 676 676 676 676 678 680 682 684 686
793 792 790 790 788 786 784 782 779 776 772 768 764 759 755 750 744 738 732 725 718 713 708 703 699 695 691 688 685 683 681 680 678 677 676 676 676 676 677 679 682 684 687
797 796 795 794 792 790 788 786 783 780 776 772 769 764 760 755 749 743 736 730 723 718 713 707 702 697 693 688 685 683 681 680 678 677 676 676 676 676 677 679 681 684 687